Regional Weather Roundup
Issued by NWS Green Bay, WI

Home | Current Version | Previous Version | Text Only | Print | Product List | Glossary On
Versions: 1 2 3 4 5 6 7 8 9 10 11 12 13 14 15 16 17 18 19 20 21 22 23 24 25 26 27 28 29 30 31 32 33 34 35 36 37 38 39 40 41 42 43 44 45 46 47 48 49 50
000
ASUS43 KGRB 220411
RWRGRB

NORTH-CENTRAL AND NORTHEAST WISCONSIN REGIONAL WEATHER ROUNDUP
NATIONAL WEATHER SERVICE GREEN BAY WI
1000 PM CST TUE FEB 21 2017

WIZ005-009-010>012-018-019-220500-
NORTH CENTRAL WISCONSIN

CITY           SKY/WX    TMP DP  RH WIND       PRES   REMARKS
IRONWOOD       CLOUDY    49  36  61 SW7       29.67F
MANITOWISH WTR CLOUDY    43  35  73 S5        29.70F
ARBOR VITAE    CLOUDY    46  35  66 S6          N/A
EAGLE RIVER    CLOUDY    46  31  54 SW5       29.71F
LAND O LAKES   CLOUDY    45  32  60 S3        29.72F
RHINELANDER    CLOUDY    49  34  56 SW10      29.73F
PHILLIPS       PTCLDY    46  34  62 SW6       29.70F
ANTIGO         CLOUDY    43  33  66 S7        29.76S
TOMAHAWK       CLOUDY    45  33  62 S3        29.73F
MERRILL        NOT AVBL
$$

WIZ013-073-220500-
NORTHEAST WISCONSIN

CITY           SKY/WX    TMP DP  RH WIND       PRES   REMARKS
IRON MOUNTAIN  MOCLDY    45  32  60 SE5       29.73F
MARINETTE      PTCLDY    48  38  68 SW7       29.78F
OCONTO         CLOUDY    47  37  69 W6        29.78R
$$

WIZ017-030-035>037-045-220500-
CENTRAL WISCONSIN

CITY           SKY/WX    TMP DP  RH WIND       PRES   REMARKS
MEDFORD        CLOUDY    43  34  69 S6        29.74S
WAUSAU         CLOUDY    49  32  52 S9        29.74F
MOSINEE        PTCLDY    48  34  57 S9        29.77
MARSHFIELD     CLOUDY    48  33  56 SW7       29.75F
WISC RAPIDS    CLOUDY    50  34  54 SW9       29.78F
STEVENS POINT  MOCLDY    46  32  57 SW3       29.78F
WAUPACA        CLOUDY    47  36  64 CALM      29.79S
SHAWANO        CLOUDY    51  39  63 SW3       29.78S
CLINTONVILLE   CLOUDY    48  36  61 W5        29.79R
WAUTOMA        CLOUDY    51  35  54 CALM      29.79F
$$

WIZ038-039-048-051-220500-
FOX VALLEY

CITY           SKY/WX    TMP DP  RH WIND       PRES   REMARKS
NWS GREEN BAY  PTCLDY    48  40  73 S7        29.78F
APPLETON       NOT AVBL
OSHKOSH        PTCLDY    51  37  58 SW6       29.80S
FOND DU LAC    PTCLDY    51  36  56 S12       29.81F
$$

WIZ022-050-052-220500-
EAST CENTRAL WISCONSIN

CITY           SKY/WX    TMP DP  RH WIND       PRES   REMARKS
EPHRAIM        MOCLDY    47  36  64 S10G16    29.77S
WASHINGTON ISL FAIR      40  37  91 S7        29.77F
STURGEON BAY   CLOUDY    48  39  71 S12       29.78F
MANITOWOC      PTCLDY    46  43  89 S15G21    29.82F FOG
SHEBOYGAN      CLOUDY    44  43  96 SW6       29.83S FOG
$$

LMZ563-521-522-541>543-220500-
LAKESHORE

STATION/POSITION TIME  TEMP    WIND        PRES    VSBY  WAVE
                       AIR SEA DIR/SP/G                  HT/PER
                 (UTC) (F)     (DEG/KT/KT) (MB)    (MI)  (FT/S)
SHEBOYGAN LKSHOR 0400   41     170/ 16/ 17 1010.2F
KEWAUNEE LKSHORE 0348   39     170/  2/  4 1009.1R
ALGOMA MARINA    0340          210/ 10/ 12   N/A
NORTHPORT PIER   0340   47     170/  6/ 12 1008.5F
SISTER BAY LKSHO 0320   45     150/ 16/ 22   N/A
CHAMBERS ISLAND  0340   49     170/  8/ 14 1008.1F
MENOMINEE LKSHOR 0348   43     170/ 10/ 12 1007.3F
$$



USA.gov is the U.S. government's official web portal to all federal, state and local government web resources and services.